パンスターズ彗星

C/2017 K2 ( PanSTARRS )

English version
Home page
Updated on January 23, 2021

---------------------------------------------------------------------

・ プロフィール

発見日 2017年5月21日
発見光度 20.8等
発見者 Pan-STARRS 1 telescope (Haleakala)

・ 写真集

・ 軌道要素

Epoch 2022 Dec. 7.0 TT = JDT 2459920.5
T 2022 Dec. 19.67089 TT                                 Rudenko
q   1.7969659            (2000.0)            P               Q
z  -0.0004760      Peri.  236.19659     +0.01818389     +0.04923156
 +/-0.0000005      Node    88.23544     -0.18095817     +0.98245436
e   1.0008553      Incl.   87.56306     -0.98332268     -0.17988797
From 3281 observations 2013 May 12-2020 Oct. 16, mean residual 0".4.

・ 星図

・ 光度変化

        m1 = 1.0 + 5 logΔ + 10.0 log r

---------------------------------------------------------------------

軌道要素はM.P.E.C. 2020-U96に掲載されたものです。
星図はステラナビゲータ Ver.10 (アストロアーツ) で作成したものです。
光度グラフはComet for Windowsで作成したものです。

---------------------------------------------------------------------

Copyright(C) Seiichi Yoshida (comet@aerith.net). All rights reserved.